Main page
METAR-TAF:

METAR-TAF

Airports :

Cascais, Portugal

Cascais Municipal Aerodrome

latitude: 38-43-32N, longitude: 009-21-19W, elevation: 99 m

Current weather observation

The report was made 19 minutes ago, at 08:30 UTC
Wind 5 kt from the Northwest, varying between West and North/Northwest
Temperature 21°C
Humidity 69%
Pressure 1015 hPa
Visibility 10 km or more
Few clouds at a height of 1400 ft
Broken clouds at a height of 2800 ft

METAR: LPCS 260830Z 31005KT 260V340 9999 FEW014 BKN028 21/15 Q1015

Time: 09:49 (08:49 UTC)


TAF: missing

Weather observations and forecasts of more than 4000 airports (METAR and TAF reports).

The available stations are represented by yellow and red dots on the map.

Hover mouse over dot to see the name of the station.

Then click to see weather observations and forecasts.

To change the map : click on the green buttons with a black cross to zoom in, on the green button with a dash to zoom out, or on the green arrows for adjacent maps.


METAR-TAF: